Reflectivity
-20 -20 -20 -20 -20 -20 -20 -20 -20 -20 -20 -20 -20 -20 -20 -20 -20 -20 -20 -20 -20 -20 -20 -20 -20 -20 -20 -20 -20 -20 -20 -20 -20 -20 -20 -20 -20 -20 -20 -20 -20 -20 -20 -20 -20 -20 -20
-20 -20 -20 -20 -20 -20 -20 -20 -20 -20 -20 -20 -20 -20 -20 -20 -20 -20 -20 -20 -20 -20 -20 -20 -20 -20 -20 -20 -20 -20 -20 -20 -20 -20 -20 -20 -20 -20 -20 -20 -20 -20 -20 -20 -20 -20 -20
-20 -20 -20 -20 -20 -17 -20 -20 -5 -3 -20 -20 -20 -20 -20 -20 -20 -20 -20 -20 -20 -20 -20 -20 -20 -20 -20 -20 -20 -20 -20 -20 -20 -20 -20 -20 -20 -20 -20 -20 -20 -20 -20 -20 -20 -15 -20
-6 -20 -20 -20 -20 -17 -20 -20 -20 -20 -20 -20 -20 -20 -20 -20 -20 -20 -20 -20 -20 -20 -20 -20 -20 -20 -20 -20 -20 -20 -20 -20 -20 -20 -20 -20 -20 -20 -20 -20 -20 -20 -20 -20 -16 -20 -17
-20 -20 -20 -20 -20 -20 -20 -20 -20 -20 -20 -20 -20 -20 -20 -20 -20 -20 -20 -20 -20 -20 -20 -20 -20 -20 -20 -20 -20 -20 -20 -20 -20 -20 -20 -20 -20 -20 -20 -20 -20 -20 -20 -20 -12 -11 -10
7 -20 -20 -20 -20 -20 -20 -20 -20 -20 -20 -20 -20 -20 -20 -20 -20 -20 -20 -20 -20 -20 -20 -20 -20 -20 -20 -20 -20 -20 -20 -20 -20 -20 -20 -20 -20 -20 -20 -20 -20 -20 -20 -20 -20 -20 -19
18 -20 -20 -20 -20 -20 -20 -20 -20 -20 -20 -20 -20 -20 -20 -20 -20 -20 -20 -20 -20 -20 -20 -20 -20 -20 -20 -20 -20 -20 -20 -20 -20 -20 -20 -20 -20 -20 -20 -20 -20 -20 -20 -20 -20 -20 -20
-2 9 -20 -20 -20 -20 -20 -20 -20 -20 -20 -20 -20 -20 -20 -20 -20 -20 -20 -20 -20 -20 -20 -20 -20 -20 -20 -20 -20 -20 -20 -20 -20 -20 -20 -20 -20 -20 -20 -20 -20 -20 -20 -20 -20 -20 -20
-19 -7 -20 -20 -20 -20 -20 -20 -20 -20 -20 -20 -20 -20 -20 -20 -20 -20 -20 -20 -20 -20 -20 -20 -20 -20 -20 -20 -20 -20 -20 -20 -20 -20 -20 -20 -20 -20 -20 -20 -20 -20 -20 -20 -20 -20 -20
23 -3 -20 -19 -20 -20 -20 -20 -20 -20 -20 -20 -20 -20 -20 -20 -20 -20 -20 -20 -20 -20 -20 -20 -20 -20 -20 -20 -20 -20 -20 -20 -20 -20 -20 -20 -20 -20 -20 -20 -20 -20 -20 -20 -20 -20 -20
17 -17 -20 -20 -20 -20 -20 -20 -20 -20 -20 -20 -20 -20 -20 -20 -20 -20 -20 -20 -20 -20 -20 -20 -20 -20 -20 -20 -20 -20 -20 -20 -20 -20 -20 -20 -20 -20 -20 -20 -20 -20 -20 -20 -20 -20 -20
5 -20 -20 -14 -20 -20 -20 -20 -20 -20 -20 -20 -20 -20 -20 -20 -20 -20 -20 -20 -20 -20 -20 -20 -20 -20 -20 -20 -20 -20 -20 -20 -20 -20 -20 -20 -20 -20 -20 -20 -20 -20 -20 -20 -20 -20 -20
11 17 0 -20 -20 -20 -20 -20 -20 -20 -20 -20 -20 -7 -19 -20 -20 -20 -20 -20 -20 -20 -20 -20 -20 -20 -20 -20 -20 -20 -20 -20 -20 -20 -20 -20 -20 -20 -20 -20 -20 -20 -20 -20 -20 -20 -20
18 -20 -20 -20 -20 -20 -20 -20 -20 -20 -20 -20 -20 -20 -20 -20 -20 -20 -20 -20 -20 -20 -20 -20 -20 -20 -20 -20 -20 -20 -20 -20 -20 -20 -20 -20 -20 -20 -20 -20 -20 -20 -20 -20 -20 -20 -20
24 -20 -20 -20 -20 -20 -20 -20 -20 -20 -20 -20 -20 -20 -20 -20 -20 -20 -20 -20 -20 -20 -20 -20 -20 -20 -20 -20 -20 -20 -20 -20 -20 -20 -20 -20 -20 -20 -20 -20 -20 -20 -20 -20 -20 -20 -20
17 3 -20 -20 -20 -20 -15 -20 -20 -20 -20 -20 -20 -20 -20 -20 -20 -20 -20 -20 -20 -20 -20 -20 -20 -20 -20 -20 -20 -20 -20 -20 -20 -20 -20 -20 -20 -20 -20 -20 -20 -20 -20 -20 -20 -20 -20
27 19 -20 -20 -20 -20 -20 -10 -20 -20 -20 -20 -20 -20 -20 -20 -20 -20 -20 -20 -20 -20 -20 -20 -20 -20 -20 -20 -20 -20 -20 -20 -20 -20 -20 -20 -20 -20 -20 -20 -20 -20 -20 -20 -20 -20 -20
-17 25 -3 -20 -20 -20 -20 -20 -20 -20 -20 -20 -20 -20 -20 -20 -20 -20 -20 -20 -20 -20 -20 -20 -20 -20 -20 -20 -20 -20 -20 -20 -20 -20 -20 -20 -20 -20 -20 -20 -20 -20 -20 -20 -20 -20 -20
-6 26 -19 -20 -20 -20 -20 -20 -18 -20 -20 -20 -20 -20 -20 -20 -20 -20 -20 -20 -20 -20 -20 -20 -20 -20 -20 -20 -20 -20 -20 -20 -20 -20 -20 -20 -20 -20 -20 -20 -20 -20 -20 -20 -20 -20 -20
17 20 -13 -20 -20 -20 -20 -20 -11 -20 -20 -2 -20 -20 -20 -20 -20 -20 -20 -20 -20 -20 -20 -20 -20 -20 -20 -20 -20 -20 -20 -20 -20 -20 -20 -20 -20 -20 -20 -20 -20 -20 -20 -20 -20 -20 -20
2 19 17 -20 -20 -20 -20 -20 -20 -19 -20 -20 -20 -20 -20 -20 -20 -20 -20 -20 -20 -20 -20 -20 -20 -20 -20 -20 -20 -20 -20 -20 -20 -20 -20 -20 -20 -20 -20 -20 -20 -20 -20 -20 -20 -20 -20
-2 10 18 -20 -20 -20 -20 -20 -20 -20 -20 -20 -20 -20 -20 -20 -20 -20 -20 -20 -20 -20 -20 -20 -20 -20 -20 -20 -20 -20 -20 -20 -20 -20 -20 -20 -20 -20 -20 -20 -20 -20 -20 -20 -20 -20 -20
-13 23 27 -8 -20 -20 -20 -20 -20 -20 -20 -20 -20 -20 -20 -20 -20 -20 -20 -20 -20 -20 -20 -20 -20 -20 -20 -20 -20 -20 -20 -20 -20 -20 -20 -20 -20 -20 -20 -20 -20 -20 -20 -20 -20 -20 -20
14 20 27 -4 -20 -20 -20 -20 -20 -20 -20 -20 -14 -15 -20 -20 -20 -20 -20 -20 -20 -20 -20 -20 -20 -20 -20 -20 -20 -20 -20 -20 -20 -20 -20 -20 -20 -20 -20 -20 -12 -20 -20 -20 -20 -20 -20
25 17 12 21 -20 -20 -20 -20 -20 -20 -20 -20 -20 -12 -20 -20 -20 -20 -20 -20 -20 -20 -20 -20 -20 -20 -20 -20 -20 -20 -20 -20 -20 -20 -20 -20 -20 -20 -20 -20 -20 -20 -20 -20 -20 -20 -20
12 12 18 20 -11 -20 -20 -20 -20 -20 -20 -8 -6 -20 -9 -20 -20 -20 -20 -20 -20 -20 -20 -20 -20 -20 -20 -20 -20 -20 -20 -20 -20 -20 -20 -20 -20 -20 -7 -19 -20 -20 -20 -20 -20 -20 -20
10 19 17 23 20 -20 -20 -20 -20 -20 -20 -15 -15 -20 -11 -20 -20 -20 -20 -20 -20 -20 -20 -20 -20 -20 -20 -20 -20 -20 -20 -20 -20 -20 -20 -20 -20 -20 -20 -20 -20 -20 -20 -20 -20 -20 -20
4 8 17 24 18 -11 -20 -20 -20 -20 -18 -19 -20 -20 -19 -20 -20 -20 -20 -20 -20 -20 -20 -20 -20 -20 -20 -20 -20 -20 -20 -20 -20 -20 -20 -20 -20 -20 -20 -20 3 -20 -20 -20 -20 -20 -20
1 20 9 -10 -12 6 -20 -20 -20 -20 -14 -20 -20 -20 -20 -5 -19 -20 -20 -20 -20 -20 -20 -20 -20 -20 -20 -20 -20 -20 -20 -20 -20 -20 -20 -20 -20 -20 -20 -20 -20 -20 -20 -20 -20 -20 -20
Wind_Speed
10 8 6 8 8 8 8 9 8 7 8 6 8 11 12 13 15 14 14 15 16 17 17 17 16 15 9 7 6 7 2 5 9 10 11 10 9 10 12 10 8 14 13 5 7 7 5
10 8 7 9 8 8 10 8 9 7 7 6 7 11 12 13 14 14 14 15 15 17 16 16 13 13 6 9 4 1 2 5 7 11 8 9 6 5 8 11 11 1 9 11 4 3 3
11 9 8 8 9 9 7 8 10 7 7 7 8 10 11 14 14 15 16 17 16 17 18 14 10 6 6 11 1 3 8 7 6 8 8 7 6 8 1 9 7 8 12 9 8 3 1
13 10 9 7 9 9 8 7 8 5 7 7 8 9 12 13 13 15 16 18 17 17 14 8 8 6 8 3 5 9 5 9 8 7 8 2 7 7 7 1 6 10 7 13 11 6 4
12 11 10 8 9 6 8 6 6 5 7 7 9 10 12 13 14 16 17 19 18 9 1 8 7 6 5 4 5 1 4 5 6 7 7 4 7 4 6 10 10 11 13 13 2 3 3
14 12 10 8 7 4 6 4 4 4 5 8 9 10 12 14 15 16 19 18 3 3 6 6 3 6 6 1 4 7 3 6 5 10 8 8 7 9 9 10 11 9 6 6 8 6 6
16 13 11 9 7 5 5 4 3 5 6 8 9 11 12 15 16 15 13 4 7 7 8 4 1 4 1 9 5 6 3 8 8 10 11 4 10 12 8 3 8 7 9 12 12 4 7
16 14 12 10 8 6 4 4 4 4 6 8 9 10 14 16 18 17 7 3 5 5 4 3 9 9 8 5 4 5 4 11 11 14 6 8 12 2 1 2 4 6 10 13 7 3 7
15 15 14 11 9 6 4 4 3 4 6 8 9 11 15 17 20 8 4 5 5 4 5 2 2 4 3 7 3 3 6 6 12 12 11 12 3 6 2 5 7 10 9 10 9 3 7
14 16 15 12 9 6 4 4 3 4 6 8 9 11 14 20 6 1 3 4 5 5 5 5 3 3 5 5 4 1 1 2 5 11 8 10 3 7 9 10 6 10 3 7 7 8 5
13 15 15 13 10 8 5 4 4 4 6 8 9 11 12 10 6 3 5 7 1 5 5 3 5 4 4 5 2 4 1 4 6 8 7 5 7 8 8 7 4 4 3 3 3 5 6
14 14 16 13 11 8 6 5 4 5 6 7 8 9 13 3 3 3 7 4 5 7 4 5 5 5 7 5 3 6 4 2 2 4 4 4 0 6 10 3 7 0 6 5 5 6 10
14 15 16 15 12 9 7 5 3 5 6 7 8 8 8 5 1 6 7 4 5 3 2 6 5 6 5 6 5 2 4 6 5 7 7 7 10 4 4 10 7 9 8 7 6 7 3
18 15 17 16 14 11 9 5 2 4 6 8 7 8 2 5 6 7 3 5 5 3 2 3 2 7 5 3 3 3 6 7 2 5 3 4 8 2 2 6 5 8 8 6 7 6 3
18 16 17 16 15 13 9 6 2 4 6 7 8 1 3 1 4 4 5 5 2 3 2 3 7 8 7 5 2 4 2 3 3 2 5 3 4 7 7 2 4 5 5 6 1 2 6
14 16 17 15 13 12 10 6 3 3 5 4 2 2 1 3 4 4 4 0 1 1 1 3 6 3 7 5 5 3 2 2 1 3 3 2 3 3 3 3 9 4 3 4 3 4 5
7 16 16 15 13 13 11 7 3 3 2 1 3 4 4 3 4 3 3 2 1 0 2 2 3 5 4 5 3 3 2 3 2 1 2 2 5 5 5 7 7 2 1 2 2 4 5
6 13 16 15 13 13 12 8 4 3 3 4 2 4 3 2 4 1 3 1 2 1 2 2 1 5 3 3 4 3 3 4 5 3 2 3 2 2 7 5 6 9 4 4 5 5 3
7 3 17 15 14 13 11 9 6 4 5 2 3 3 2 3 4 4 3 1 3 2 1 2 3 1 2 5 5 5 3 3 5 2 2 2 2 4 7 6 4 5 6 3 2 2 4
13 6 11 16 14 13 13 11 7 5 5 4 3 5 3 2 1 3 5 4 3 2 1 2 4 4 7 5 3 7 6 4 3 5 3 2 5 6 5 6 2 5 7 4 5 4 5
14 13 5 17 14 12 13 10 8 6 7 4 2 3 2 6 5 4 3 5 6 6 2 0 3 3 5 5 9 6 6 6 5 2 1 3 6 7 9 9 10 8 7 7 9 4 5
14 12 5 15 15 13 13 12 9 6 7 3 2 3 2 3 6 8 4 6 9 3 3 5 5 4 3 6 2 8 8 3 3 4 3 3 5 10 9 6 7 9 7 9 9 7 7
13 13 9 15 15 14 13 11 9 9 9 2 2 1 4 2 6 5 5 6 7 4 2 3 8 9 9 7 7 10 8 7 5 2 5 3 7 6 6 1 2 5 5 6 7 6 5
13 15 11 13 15 15 14 12 10 9 5 2 2 2 2 4 4 6 5 5 8 7 2 3 2 5 5 10 10 10 10 10 9 8 5 8 6 0 4 5 2 6 4 3 7 6 5
12 14 13 13 14 15 14 12 10 9 7 2 1 2 1 4 4 5 6 6 5 4 3 5 4 4 8 2 4 6 3 4 5 6 4 2 4 4 4 4 3 6 6 4 3 6 3
13 12 15 13 13 15 14 12 10 8 8 1 2 3 2 2 3 2 5 7 5 5 5 4 5 3 1 1 2 4 4 2 5 5 3 5 2 3 3 3 4 7 5 2 3 5 3
14 14 15 17 15 15 15 12 11 9 9 4 2 2 1 2 3 2 2 5 1 2 4 5 5 4 3 4 4 3 4 0 5 6 9 6 5 5 5 2 3 6 6 5 5 7 5
15 14 11 15 16 16 15 13 11 9 10 5 4 1 2 2 4 1 1 1 3 4 6 6 6 3 3 5 4 3 3 3 3 4 6 6 5 4 3 2 3 6 6 3 7 5 6
15 16 12 13 15 16 16 14 12 10 10 7 2 0 1 2 4 3 4 6 5 5 1 3 4 5 2 3 1 2 3 3 4 6 2 5 2 2 4 5 7 4 9 7 4 8 6
Wind_Direction
242 246 252 274 279 271 285 290 283 273 290 302 309 310 313 316 317 322 317 311 307 305 308 307 313 318 308 247 259 120 171 125 175 215 205 196 220 233 240 226 200 239 262 280 291 268 268
226 237 242 263 268 270 287 303 295 284 284 295 301 300 308 312 313 312 307 301 299 297 299 300 302 305 258 260 68 161 318 286 210 209 199 206 231 242 288 261 235 294 263 271 271 237 175
217 225 237 249 265 276 296 291 294 284 279 291 295 299 302 305 308 308 307 303 299 297 300 291 274 255 250 262 297 272 290 269 257 229 214 220 253 236 307 246 248 259 253 219 216 204 234
213 213 232 242 252 267 282 298 299 278 279 291 299 302 300 301 306 305 305 302 299 301 294 270 216 210 259 175 298 267 258 244 231 240 246 218 217 239 240 293 228 241 245 247 132 144 77
212 207 223 239 257 266 292 285 279 287 294 302 305 306 304 305 309 307 306 302 298 295 282 141 180 239 251 149 231 26 271 239 174 187 192 139 199 245 197 233 237 205 261 268 176 65 100
205 208 211 233 251 270 303 327 314 317 316 311 313 313 309 309 309 310 311 297 135 177 190 216 245 228 227 66 319 311 229 242 194 166 155 199 211 229 219 234 250 286 253 233 270 112 237
206 206 209 224 238 249 277 300 318 320 316 316 319 316 314 314 312 315 319 202 205 186 211 286 44 319 353 332 235 185 176 185 184 208 217 188 236 228 255 336 317 293 278 278 284 270 265
203 204 202 212 225 243 270 291 309 322 319 323 320 320 324 321 317 312 274 36 34 359 282 220 255 271 267 297 287 174 200 199 197 211 191 206 233 300 259 219 246 249 269 270 280 161 242
201 195 199 203 212 233 253 282 309 323 325 325 321 331 325 320 313 282 44 64 335 213 260 150 233 263 246 206 269 170 212 190 204 211 213 254 68 132 223 225 254 256 273 281 285 158 233
207 193 193 196 203 208 234 264 297 323 326 321 318 334 329 321 280 7 126 357 326 206 238 106 153 133 179 230 230 323 279 250 177 226 208 248 137 229 247 264 270 278 22 286 257 245 276
204 198 187 187 198 194 219 248 284 316 316 318 320 332 328 325 323 214 31 338 191 222 177 102 108 61 164 238 72 121 127 207 180 161 211 146 190 198 225 260 212 318 320 288 238 262 275
203 201 187 180 188 197 208 237 278 308 308 314 320 334 330 200 241 1 334 306 224 228 124 125 128 159 172 192 119 123 158 117 28 169 223 283 223 247 258 249 229 268 234 219 235 269 252
213 202 186 177 181 195 203 225 264 300 304 309 320 332 309 309 37 333 310 215 222 260 174 125 125 170 193 166 149 173 160 156 229 197 200 188 216 204 249 253 192 224 246 255 239 216 297
225 198 182 177 179 187 195 205 252 289 305 306 335 320 203 266 307 305 252 222 235 98 88 112 145 151 157 154 98 139 182 168 131 263 204 248 169 231 75 275 317 216 277 277 282 288 352
214 188 183 182 186 175 192 186 224 284 307 327 311 171 247 237 283 244 234 222 71 137 92 150 150 167 135 147 155 162 71 79 50 331 279 230 121 100 59 338 281 139 233 4 188 31 257
213 186 183 180 176 172 184 168 217 280 313 14 275 219 122 359 272 247 236 313 151 33 339 233 163 262 155 137 169 176 158 52 70 354 285 75 193 37 74 243 76 351 78 228 190 255 285
3 187 183 176 176 174 168 163 203 255 290 0 239 191 66 338 280 217 216 136 249 320 267 289 130 127 106 128 116 128 95 92 353 53 316 302 286 106 211 25 6 160 130 30 358 326 301
143 214 178 172 172 168 166 165 196 234 192 236 220 177 48 295 192 204 174 181 350 291 183 183 71 94 106 116 108 118 124 22 3 310 329 43 341 74 83 87 30 51 29 327 300 123 33
207 333 177 168 173 174 162 176 193 216 200 256 158 95 125 261 192 166 124 189 283 239 75 149 123 16 139 122 117 122 111 56 25 6 4 27 32 175 162 166 104 42 17 14 59 313 31
186 176 188 167 174 175 169 174 187 198 189 264 201 143 137 182 343 160 150 171 187 227 240 70 102 132 133 112 92 140 127 69 54 74 1 259 58 9 8 52 30 91 54 29 342 302 100
179 168 216 169 171 176 168 171 179 179 190 262 255 102 21 167 194 169 178 171 177 169 202 168 122 153 143 126 122 127 125 130 94 110 79 27 82 82 78 99 94 78 57 44 70 63 359
177 167 195 176 173 166 167 166 171 170 183 253 170 162 148 95 160 160 158 193 192 156 206 139 158 113 138 131 60 159 145 165 105 94 70 20 123 120 90 108 112 98 87 88 80 69 88
171 166 189 176 164 165 162 165 167 171 222 196 119 162 278 164 151 182 178 172 182 208 87 26 132 121 97 72 74 78 78 79 77 93 102 109 152 184 144 150 166 148 50 78 96 65 355
172 165 181 169 167 163 161 170 169 171 251 318 45 268 211 131 169 186 185 183 185 183 118 99 133 136 99 116 110 100 90 91 78 61 25 144 135 53 127 174 226 79 69 90 102 87 71
170 171 169 179 173 160 163 171 168 170 192 15 44 311 11 116 147 164 176 150 134 135 91 105 48 43 147 141 135 144 136 162 93 50 50 264 159 117 164 186 107 175 186 185 226 107 77
172 184 177 182 170 161 167 170 165 175 156 211 24 340 351 148 155 74 165 187 152 155 132 89 77 90 111 88 144 172 192 167 153 133 95 121 186 200 141 165 189 101 125 209 223 155 94
180 190 188 178 173 168 168 168 163 167 164 202 100 4 311 71 82 216 160 181 110 154 127 138 149 157 278 151 180 183 186 324 170 170 164 153 159 185 153 135 122 114 107 146 231 70 103
180 183 181 183 170 170 167 163 161 167 176 203 97 240 344 43 81 317 21 224 161 230 170 132 159 166 159 175 191 168 227 155 176 133 173 168 159 167 166 159 186 153 144 279 86 107 116
177 178 174 181 173 169 164 158 162 169 179 231 151 16 153 314 66 31 65 47 7 330 321 161 37 116 106 132 168 140 157 185 180 164 177 185 335 129 346 54 99 107 85 95 89 124 115